Theta_e
306 306 306 306 306 306 307 307 308 308 308 309 310 312 312 312 311 310 310 311 311 311 311 311 312 312 312 313 314 314 315 316 314 311 309 306 306 307 309 312 313 313 311 310 310 309 309 308 308 308 309 308 308 308 307 306 306 309 311 309 308 308 307 308 307 306 307 306 305 302 300 300 299 298 297 297 298 298 298 298 298 298 298 298 297 297 298 298
306 306 306 306 306 306 306 306 306 307 307 308 311 312 311 311 310 310 311 311 311 310 311 311 311 311 312 312 313 314 315 315 313 309 307 306 306 308 309 311 313 312 311 310 309 309 309 308 308 308 309 307 307 308 308 306 306 308 310 308 308 308 306 306 306 306 307 306 305 301 298 299 299 298 297 298 299 298 299 299 298 298 298 298 297 298 298 298
306 306 306 306 307 306 306 306 306 306 307 309 311 311 310 310 310 311 311 311 311 310 310 311 311 311 311 312 313 314 315 315 312 308 307 307 307 308 309 309 309 309 309 309 308 308 308 307 307 308 308 306 306 308 307 306 306 306 308 308 307 307 306 304 305 305 305 304 303 300 298 299 298 297 298 299 300 299 300 299 299 299 299 299 299 298 299 299
305 306 306 306 307 307 306 306 306 306 307 309 310 311 310 310 310 310 310 310 311 311 311 311 311 311 311 312 312 313 315 315 311 307 306 307 307 308 309 308 307 307 307 308 307 307 306 306 306 307 307 306 306 306 305 304 306 306 307 308 306 306 305 303 304 303 303 302 301 299 298 299 297 297 298 300 300 300 300 300 299 299 299 299 299 299 299 300
305 306 306 307 307 306 306 306 306 306 307 308 309 310 309 310 310 310 310 310 310 310 310 310 311 312 311 311 311 312 315 316 310 307 306 307 308 308 309 309 309 309 308 307 307 307 307 306 307 308 306 306 306 306 304 302 304 305 304 306 305 305 304 302 301 300 299 299 299 299 300 300 298 298 298 299 301 301 300 299 299 299 300 300 300 299 299 300
305 306 306 306 307 307 306 306 306 306 306 307 308 309 309 309 309 309 310 310 311 310 310 310 311 312 312 311 312 312 314 313 308 305 306 307 309 309 309 309 309 310 310 309 307 307 308 307 308 307 305 305 305 305 304 303 304 304 303 303 302 303 303 300 299 298 297 299 300 299 300 299 299 300 297 297 301 300 299 298 298 299 298 299 299 299 299 300
305 305 306 306 307 307 306 306 306 306 306 307 308 308 309 308 309 309 309 310 310 310 310 311 311 311 311 311 312 312 310 308 305 305 305 307 309 309 309 309 308 309 310 308 307 307 307 307 306 305 306 305 304 303 304 304 305 305 303 301 300 301 300 298 297 296 297 299 299 298 299 299 300 300 296 297 300 299 297 295 296 296 296 297 299 299 299 300
305 305 306 307 307 307 307 307 306 307 306 306 307 308 309 309 309 309 309 309 310 310 310 311 311 311 312 312 313 311 307 306 305 304 305 307 308 309 310 308 307 308 308 306 306 307 306 306 305 305 305 304 303 303 303 304 304 303 303 301 299 299 298 296 296 297 297 298 296 297 300 299 298 298 297 300 300 298 296 295 295 295 296 297 298 299 300 300
305 305 306 306 307 307 307 307 307 307 307 307 307 307 308 309 309 309 309 309 310 310 310 310 311 311 312 312 314 311 306 305 304 303 306 307 307 308 309 308 307 308 306 305 305 306 307 306 304 305 304 302 303 302 302 303 304 302 301 300 299 298 298 297 298 298 298 298 297 299 300 299 296 296 299 301 299 297 296 296 296 297 297 298 299 299 299 299
305 305 306 306 306 306 306 306 307 307 307 307 306 307 308 309 309 309 309 309 309 309 310 310 310 311 311 312 314 310 306 305 303 303 305 306 306 307 307 307 307 307 306 304 304 305 307 306 304 305 304 302 302 301 302 303 302 300 299 300 299 299 298 298 299 298 298 298 297 300 301 299 296 297 301 301 298 296 297 297 297 298 299 299 300 299 299 299
305 305 306 306 306 306 306 306 306 307 307 307 307 308 308 308 308 309 309 309 309 310 310 310 310 311 309 310 311 308 305 305 303 303 305 306 307 307 306 306 307 307 305 303 303 304 305 305 303 305 305 303 302 301 300 300 300 299 300 301 299 300 300 299 300 298 299 299 297 299 300 298 297 299 302 300 296 296 298 299 297 298 299 299 300 299 298 298
305 305 305 305 306 306 306 306 307 307 307 307 307 309 309 308 308 309 309 309 309 309 309 309 310 309 309 308 307 306 305 305 303 303 303 305 306 305 305 305 306 306 306 303 301 303 303 303 304 305 305 303 302 302 300 298 299 299 300 302 300 301 301 300 299 298 299 300 296 297 301 301 300 302 301 298 296 296 297 299 298 298 299 299 299 299 298 298
305 306 306 305 306 306 306 307 307 307 307 307 308 309 309 308 308 309 308 309 309 309 309 309 309 309 310 308 306 306 306 305 304 303 303 304 304 304 305 305 305 305 306 304 301 302 302 302 304 303 302 302 301 302 301 298 298 300 300 302 302 303 302 300 299 299 299 300 295 297 304 304 303 303 300 296 296 296 297 299 299 299 299 298 299 299 299 299
306 306 306 306 306 307 307 307 307 307 306 306 308 308 308 308 308 308 308 308 308 308 308 309 309 309 310 307 306 306 306 305 305 304 304 304 303 304 304 304 305 304 304 304 302 302 303 303 304 302 301 301 300 300 301 299 300 301 301 302 303 305 303 300 299 300 301 299 296 298 305 305 303 303 299 295 295 297 299 300 300 300 299 298 298 298 299 299
306 306 306 306 307 307 307 307 307 307 307 307 307 308 308 308 308 308 308 308 308 308 308 308 308 309 309 306 305 306 306 306 305 305 304 304 304 304 304 304 304 304 304 303 303 303 303 303 303 302 300 301 301 302 302 301 301 300 302 305 305 305 303 301 299 299 301 300 297 300 305 305 304 302 298 294 295 296 299 301 300 300 299 299 299 298 299 299
306 306 306 307 307 308 308 307 307 307 307 307 307 308 308 308 308 308 308 307 308 308 308 308 308 309 310 307 305 306 307 306 306 305 305 305 305 305 304 304 304 304 304 304 304 304 304 305 303 301 301 301 302 304 304 305 304 302 304 306 305 305 305 303 299 297 299 300 299 301 304 305 304 301 297 294 295 296 298 300 300 299 299 298 299 298 298 299
306 307 307 307 307 308 308 307 307 307 307 307 308 307 307 307 307 307 307 307 308 308 308 307 307 309 308 306 307 307 306 306 306 306 306 305 305 305 305 305 305 304 305 306 305 306 306 306 304 303 303 302 301 305 307 305 305 305 305 306 304 303 304 304 301 298 298 300 301 302 303 305 304 301 298 295 295 296 298 300 300 300 299 299 299 298 298 298
307 307 307 308 309 309 309 308 307 307 307 307 307 307 308 307 307 308 308 307 308 308 308 307 309 309 308 308 308 306 305 306 306 306 306 306 304 305 305 305 304 305 311 311 307 309 308 307 307 307 306 305 302 306 307 304 305 306 306 305 304 302 302 304 303 300 299 302 303 303 303 305 305 303 301 297 295 296 298 300 300 300 299 299 299 299 299 299
307 308 308 309 310 310 309 308 307 307 307 307 307 308 307 307 308 308 307 308 311 313 311 309 311 313 312 310 307 305 305 306 307 306 305 306 305 304 303 304 306 309 316 314 307 308 309 309 310 309 308 305 302 303 305 303 304 305 305 305 305 304 303 303 301 298 298 302 304 304 304 305 304 304 303 298 294 296 298 299 299 299 299 299 299 299 299 299
308 308 309 310 310 310 308 308 307 307 308 307 308 307 309 313 313 310 307 307 307 308 310 309 309 312 311 309 306 306 306 306 308 306 305 306 304 305 304 307 313 310 308 310 307 304 306 310 310 306 304 302 300 299 298 298 299 303 305 305 304 305 304 302 300 298 297 302 304 302 303 304 304 305 304 299 295 296 298 298 299 300 300 300 300 300 300 300
307 308 309 309 309 309 308 308 308 308 309 308 309 308 312 318 315 309 307 306 304 303 306 306 306 309 307 306 305 304 307 309 308 306 305 305 304 306 307 312 319 308 301 303 305 306 308 309 305 301 300 298 298 297 296 297 300 302 305 305 305 305 304 301 299 299 298 301 305 302 302 305 306 306 304 299 297 299 299 300 301 301 301 300 300 301 301 301
307 308 309 309 309 309 308 308 308 309 309 308 309 308 309 311 309 307 308 309 306 303 305 305 306 308 305 304 304 303 310 313 310 308 306 305 307 308 309 312 315 307 303 305 308 309 309 307 302 298 296 295 296 296 296 299 303 304 305 306 306 305 304 301 298 299 299 302 305 303 303 306 306 304 302 299 299 301 300 299 301 301 301 301 300 301 301 302
307 307 308 308 308 308 308 308 308 308 309 308 308 307 307 307 306 307 308 309 308 306 307 309 311 311 308 307 304 305 312 311 310 310 305 307 310 309 310 312 310 307 307 311 313 311 308 304 299 295 295 297 298 298 298 301 304 305 306 307 306 304 304 304 301 300 299 300 302 302 303 306 306 303 301 299 298 299 299 297 298 298 300 301 301 301 301 301
307 307 308 308 307 308 308 308 308 308 309 308 307 307 307 307 307 308 310 311 311 308 306 306 307 310 309 307 304 307 312 307 307 308 303 306 310 306 306 308 308 307 305 308 314 312 306 300 296 295 296 297 300 302 302 304 306 304 304 307 306 304 303 304 303 301 300 300 299 302 306 308 308 306 304 301 298 299 300 299 299 299 299 300 300 299 299 299
308 307 308 308 307 308 308 308 309 308 308 308 307 307 307 308 308 308 312 314 311 309 306 305 305 306 305 305 305 306 310 308 305 305 302 304 308 306 304 303 306 305 302 305 311 308 302 296 294 297 298 298 301 305 303 304 307 306 302 302 302 302 302 302 303 303 304 305 302 303 307 309 309 308 306 303 302 303 303 302 302 303 302 300 300 300 300 300
308 308 308 308 308 308 308 310 308 307 309 307 307 309 307 309 309 308 314 316 310 309 310 309 307 307 306 306 305 305 309 308 303 302 302 303 303 304 306 303 304 304 301 304 307 304 301 296 294 298 300 302 304 305 301 300 307 307 302 298 299 301 302 303 304 305 305 307 303 302 307 309 309 309 307 304 305 306 305 305 304 304 303 302 301 301 302 302
307 308 307 308 307 307 310 311 308 308 311 309 308 310 307 309 307 305 313 314 307 308 310 310 309 308 306 304 303 306 309 307 304 303 302 302 302 304 308 306 304 304 300 302 307 304 301 299 298 299 301 305 307 305 301 298 306 308 300 298 300 301 302 302 304 307 306 305 305 304 305 307 308 309 308 305 307 308 307 307 307 305 304 302 302 301 301 301
307 307 307 307 307 308 310 310 308 308 310 309 309 309 308 308 306 309 315 309 305 308 310 310 309 306 306 304 304 307 308 307 308 306 301 301 302 305 310 307 304 303 298 305 309 303 299 302 301 300 302 305 305 302 299 298 305 304 298 298 300 300 301 301 304 307 304 305 308 306 304 307 308 308 309 307 308 309 309 308 307 306 305 303 302 301 300 300
306 307 307 307 308 309 309 309 308 308 309 309 309 308 308 306 307 314 317 306 304 309 309 309 307 306 308 308 308 309 307 307 310 307 302 303 302 304 308 304 303 304 300 305 308 301 298 300 298 299 303 304 301 299 296 298 302 300 297 299 299 299 300 301 304 305 305 307 309 306 302 306 309 308 309 309 309 309 308 307 306 306 305 305 304 302 300 299
307 307 306 307 308 309 309 309 308 309 309 309 309 308 307 310 314 316 311 306 308 309 308 310 309 307 309 311 310 310 309 309 309 307 306 307 305 304 303 302 304 307 304 305 305 300 297 297 297 299 300 300 299 298 296 297 299 298 300 303 302 302 301 302 304 304 307 310 308 303 301 304 309 309 309 309 308 307 306 306 306 306 306 305 304 303 300 298
307 307 306 308 309 309 309 309 309 309 308 308 308 308 310 315 319 314 306 307 311 311 310 311 310 310 312 313 311 310 310 310 308 309 310 309 307 306 304 304 306 307 307 307 304 300 300 301 300 299 297 297 299 300 297 296 298 300 303 305 306 307 305 306 307 306 310 311 306 301 299 302 308 310 310 309 307 305 304 305 305 305 305 305 304 303 301 299
307 307 306 308 310 309 309 310 308 307 308 308 307 312 318 316 314 312 309 308 311 311 311 311 310 311 313 313 311 309 310 308 307 308 309 308 308 307 306 307 306 307 306 306 306 304 304 303 300 297 296 296 300 304 302 299 300 302 305 306 308 311 309 310 311 310 311 310 304 300 300 304 309 310 309 309 308 306 304 303 304 304 303 303 303 302 300 299
306 307 307 309 310 308 308 308 307 307 308 308 311 321 324 315 310 312 311 309 309 308 309 310 309 309 311 313 309 306 307 307 306 307 306 306 308 306 304 303 304 307 307 305 305 306 305 303 301 300 299 296 298 304 306 305 304 305 306 307 310 311 311 312 311 309 311 310 303 298 301 307 309 309 309 307 307 306 303 301 301 301 301 301 301 300 300 300
306 307 307 309 310 308 308 307 307 308 306 309 319 322 317 312 311 311 311 309 307 306 307 308 309 310 309 309 306 304 308 307 305 309 308 305 307 308 306 304 302 306 307 306 305 306 306 305 303 301 301 297 297 300 302 302 304 304 301 304 309 310 311 313 312 311 311 311 306 301 305 311 310 309 308 306 306 305 302 300 299 300 300 299 300 301 302 302
307 306 307 310 309 308 309 307 307 308 307 313 325 319 313 314 313 313 314 310 307 309 307 306 311 314 308 305 305 304 307 308 306 309 309 306 308 309 308 307 304 304 306 306 305 304 305 305 302 299 298 297 298 297 295 299 305 303 299 305 309 308 309 310 308 309 309 310 310 307 308 310 309 309 307 306 307 306 304 302 302 303 302 302 304 304 303 303
306 307 309 308 308 308 307 308 309 307 310 319 322 316 317 318 312 312 314 311 310 311 309 309 312 312 308 306 307 305 305 307 307 307 307 306 307 307 306 305 303 303 306 307 307 304 305 305 301 298 298 296 297 296 294 299 304 303 304 307 304 300 305 309 305 303 306 311 311 308 310 310 308 309 309 309 310 308 307 306 304 305 305 305 307 306 304 304
307 307 308 306 307 307 305 308 308 306 315 326 320 313 317 314 306 310 314 310 309 310 311 312 310 308 310 309 307 307 307 307 306 307 307 306 306 307 306 305 301 301 303 305 307 306 306 307 301 299 301 298 294 296 296 296 299 304 307 305 300 299 304 308 309 309 310 313 312 308 309 311 310 311 311 310 310 308 308 307 306 307 306 306 306 305 305 304
306 307 307 305 306 306 306 310 307 308 322 329 321 314 312 308 303 306 309 306 306 310 312 313 309 306 309 311 308 306 308 308 307 308 308 306 306 307 307 306 301 299 298 300 306 305 305 308 304 298 301 299 294 297 302 299 296 301 304 300 302 308 310 309 311 312 312 313 313 311 309 309 310 311 311 310 309 308 308 307 307 307 306 305 305 304 304 304
307 311 312 307 305 306 308 309 307 314 324 323 321 316 308 306 304 302 304 305 307 310 310 312 311 306 306 309 309 307 306 308 307 308 309 307 307 307 305 305 303 299 297 299 305 304 303 308 307 300 299 299 298 302 306 305 299 299 301 300 301 306 309 309 308 310 313 313 312 313 312 311 311 310 310 310 308 308 308 307 307 306 305 305 304 304 304 303
307 315 314 305 305 307 307 307 311 321 320 313 317 315 306 305 304 299 300 304 306 308 309 312 312 310 309 306 307 307 306 307 307 308 309 307 307 307 302 303 304 301 298 299 303 303 304 308 308 303 299 301 303 304 304 304 303 303 305 305 304 302 303 306 305 304 309 313 312 312 312 311 312 310 309 310 308 307 307 307 307 306 305 304 303 303 303 303
308 318 314 304 306 307 307 312 315 316 315 311 311 311 307 306 305 301 298 299 301 303 306 311 311 311 312 308 306 306 306 307 307 308 309 307 308 308 302 299 302 301 301 302 303 304 305 308 309 306 304 306 305 299 295 297 298 301 305 306 306 306 306 310 309 303 303 308 310 311 311 312 313 311 310 308 307 306 305 305 306 306 305 304 304 303 303 302
311 317 309 304 306 306 310 318 307 301 311 312 307 307 306 305 305 303 300 299 302 302 302 307 309 309 311 310 307 306 307 308 307 307 308 306 306 306 300 294 298 300 302 305 305 302 303 308 309 308 306 304 300 294 292 293 292 295 299 300 303 306 309 313 313 308 304 303 303 306 311 313 311 310 310 308 306 305 303 303 305 305 304 303 303 303 302 302
318 314 305 304 306 307 314 318 306 303 310 305 300 301 302 302 305 304 302 302 304 304 305 308 308 307 308 307 307 309 310 310 307 306 307 306 302 300 295 292 296 300 301 304 305 302 303 309 310 309 306 302 298 294 292 291 293 298 299 298 300 303 306 309 310 309 308 305 306 309 311 313 312 308 307 306 304 304 303 302 304 304 304 304 303 302 302 301
315 310 306 306 305 307 315 316 314 314 308 300 301 302 299 300 303 304 305 305 304 304 309 309 305 305 305 302 305 309 309 309 307 304 304 304 301 296 294 294 295 299 301 304 305 303 305 310 311 310 310 310 307 304 302 299 298 301 301 298 298 301 304 307 306 307 310 308 309 312 312 312 313 310 306 305 304 305 304 303 302 303 304 304 303 302 302 301
310 308 311 309 304 307 311 311 317 319 308 304 308 306 302 302 302 302 305 305 302 303 308 308 304 303 302 299 302 304 302 306 308 305 302 302 299 295 294 294 294 297 299 299 299 302 306 309 309 311 311 312 313 312 311 309 304 302 301 298 298 301 305 310 308 308 312 309 306 311 313 312 313 311 308 306 305 305 305 303 302 302 303 303 302 302 301 300
312 313 313 310 307 308 307 302 309 317 311 309 310 307 306 306 302 300 302 304 302 301 304 304 301 303 303 302 305 306 302 302 305 305 304 303 299 295 293 294 294 295 297 297 296 298 305 308 307 312 313 311 314 314 307 306 308 308 305 300 299 299 301 307 309 310 312 309 307 311 312 312 314 312 309 309 307 306 306 305 304 303 303 303 302 301 300 300
313 316 313 310 309 310 308 303 306 312 312 312 310 308 307 307 303 300 300 301 301 300 303 302 302 306 307 306 308 308 304 302 303 305 304 300 298 295 292 292 294 295 297 298 295 297 307 309 306 311 314 308 306 306 300 302 309 310 307 304 301 298 300 306 311 311 310 310 311 312 309 309 314 313 311 310 307 306 306 306 305 304 303 302 301 300 300 300
307 312 309 306 310 313 310 308 310 311 310 309 308 307 307 307 306 305 302 299 299 300 304 305 305 307 309 310 312 308 305 305 305 303 302 299 298 297 296 295 294 294 295 296 294 298 307 308 303 306 310 303 297 298 298 301 305 303 305 305 302 299 302 308 311 309 309 312 314 312 308 309 312 312 311 309 306 305 305 305 303 302 301 300 300 300 300 300
303 308 302 299 309 314 308 306 309 312 311 309 307 307 307 309 309 306 302 300 301 301 303 309 310 308 309 311 312 310 308 309 311 307 303 302 300 299 302 303 297 292 293 296 296 297 304 308 303 303 308 304 297 296 297 300 303 303 304 303 302 301 301 306 308 306 308 312 311 307 305 307 309 309 307 307 305 303 303 302 301 301 301 301 300 300 301 299
308 312 308 303 308 307 301 301 306 311 309 307 309 308 306 310 311 305 302 304 308 305 302 308 312 308 307 307 309 312 311 312 318 313 305 304 304 301 304 308 303 294 294 298 297 296 302 308 302 302 309 307 300 297 298 300 303 306 307 302 299 301 301 302 303 302 304 307 306 304 304 305 307 307 306 306 304 302 303 304 302 301 301 300 300 300 300 299
305 306 306 311 312 304 302 302 305 310 308 305 309 308 306 309 310 307 304 304 308 307 303 309 314 307 303 304 308 313 313 312 316 314 306 306 309 306 304 306 304 301 298 298 299 299 302 304 300 302 310 312 302 299 302 302 302 307 311 307 301 302 304 303 302 301 303 306 306 305 306 308 309 308 305 305 304 304 305 305 303 302 301 300 300 300 299 298
303 301 303 314 315 303 302 304 304 309 311 308 309 308 308 310 308 308 307 304 302 304 302 307 314 308 304 306 308 310 310 307 305 303 300 301 301 300 301 302 303 303 300 299 300 300 302 308 305 304 311 312 303 300 305 307 308 312 316 313 306 303 303 302 301 301 302 305 307 308 310 311 310 306 305 306 306 306 306 305 304 303 301 301 300 299 298 298
Wind_Speed
7 8 8 9 10 13 15 14 12 11 11 12 12 13 15 17 18 19 19 19 19 19 20 20 20 19 20 21 21 22 18 20 29 35 28 22 22 12 8 5 3 1 1 2 4 6 15 21 20 17 16 14 8 3 3 6 5 1 2 8 6 5 6 2 3 4 6 9 7 5 3 2 6 4 2 3 2 3 4 3 2 2 0 1 3 6 6 4
7 7 8 9 9 11 13 14 13 12 13 13 14 16 18 18 16 16 16 16 17 16 17 17 17 16 17 20 22 24 24 30 35 32 24 22 16 7 7 7 4 1 2 1 7 9 13 13 11 11 11 8 6 5 3 5 7 4 4 7 6 4 5 3 4 5 4 8 8 5 2 1 4 3 3 3 4 4 4 4 2 4 3 3 4 4 5 4
7 6 7 8 9 9 10 11 12 13 15 15 15 16 17 14 13 14 15 15 14 12 12 11 10 10 12 15 17 18 23 31 27 19 23 21 12 9 11 12 12 10 5 6 12 16 17 13 9 10 10 8 6 5 6 5 5 5 4 7 6 4 6 4 3 3 2 7 8 5 2 2 3 1 2 2 4 3 2 3 3 5 6 6 6 5 5 5
7 6 6 8 9 9 9 9 11 13 14 16 15 14 13 12 13 13 12 11 10 9 8 6 5 6 8 9 9 10 17 23 12 15 23 18 11 11 10 11 11 12 12 13 18 23 23 18 13 11 10 8 6 6 9 7 4 4 5 8 7 4 7 4 2 3 1 3 5 6 4 3 3 2 1 2 4 3 2 3 2 4 7 8 8 7 6 6
7 6 7 9 10 10 9 9 10 12 13 15 15 13 11 11 11 9 9 9 9 8 5 4 4 3 4 2 1 2 6 10 6 19 23 15 10 11 8 8 8 7 8 10 14 17 17 14 9 8 8 6 5 6 8 8 4 6 6 8 6 2 6 4 2 3 1 1 4 5 4 3 2 2 1 2 1 3 3 2 2 2 6 9 10 9 7 7
7 7 8 10 10 10 9 9 10 11 12 13 14 13 12 11 9 8 9 10 9 8 8 9 8 6 7 6 5 7 6 4 9 23 21 14 9 8 7 9 9 7 4 4 9 12 11 10 7 7 6 6 9 8 6 6 2 6 6 6 4 3 6 4 1 2 1 3 5 3 2 2 2 2 1 3 2 3 4 2 1 1 3 7 8 9 9 9
8 9 11 12 11 10 8 8 9 9 10 11 12 13 12 11 10 11 11 11 11 11 12 13 14 15 15 17 19 18 12 3 16 24 17 13 9 6 7 8 8 4 1 7 13 13 10 13 13 7 6 9 10 10 9 10 9 9 9 5 4 5 6 2 1 1 2 2 3 1 3 1 1 1 1 3 2 3 3 1 1 2 4 6 8 10 10 9
9 10 13 13 11 9 8 7 7 8 9 9 10 11 11 11 11 12 11 12 12 11 12 10 12 12 11 17 19 14 9 7 22 23 12 11 10 6 5 6 5 6 11 15 14 12 7 12 12 4 7 9 6 8 8 11 13 10 10 6 4 5 5 3 2 2 1 3 1 1 2 0 1 1 1 2 2 3 2 1 2 4 5 7 8 10 10 9
10 11 13 13 11 9 7 6 6 7 8 8 8 9 10 11 11 11 9 9 9 9 7 5 6 7 11 18 15 8 6 13 21 18 9 9 10 9 7 7 6 9 13 12 8 7 3 3 4 3 10 9 5 6 2 3 7 6 8 8 7 6 4 2 2 3 2 2 1 3 1 1 1 1 2 3 3 3 2 3 4 5 6 8 9 9 9 9
11 11 12 12 11 8 7 5 5 6 7 8 8 9 11 11 10 9 8 8 8 7 6 6 8 10 16 17 12 7 7 14 17 14 9 8 10 12 12 9 7 8 13 14 11 8 5 9 13 13 14 9 5 5 5 3 7 7 10 10 9 7 3 1 3 3 0 1 3 2 1 1 1 1 2 4 3 2 4 4 4 5 7 8 9 8 8 8
11 11 12 11 10 9 7 5 4 5 8 10 10 11 12 10 9 8 8 9 9 8 8 9 9 14 25 22 11 7 6 11 17 19 16 11 11 15 15 13 12 17 25 26 22 21 21 23 20 11 7 6 8 11 8 6 10 10 9 11 8 5 5 3 2 3 2 1 4 3 1 1 1 2 1 4 3 1 4 6 5 6 7 7 8 7 7 8
11 11 11 11 11 9 8 6 5 7 11 13 13 14 12 9 9 9 11 11 12 12 12 13 13 21 34 25 8 5 7 11 15 22 26 20 19 19 17 18 20 27 34 27 19 18 16 12 12 7 4 6 7 10 7 3 6 6 3 7 6 4 6 5 1 3 3 1 3 2 2 3 4 3 2 4 2 1 4 6 6 7 6 6 7 7 8 9
11 12 12 12 11 11 10 9 9 12 15 16 15 14 11 10 11 14 16 16 17 16 16 18 18 22 25 13 4 5 8 12 14 22 29 28 28 25 21 21 21 24 28 25 17 13 11 12 20 17 6 5 5 6 9 3 1 4 1 3 4 3 4 4 3 3 2 1 2 2 1 2 6 5 3 3 1 3 5 7 7 7 6 5 5 6 8 10
12 12 13 13 13 13 12 11 13 15 17 18 17 15 12 13 15 17 17 17 17 16 17 19 17 20 19 6 3 8 9 12 17 23 25 26 30 30 29 29 28 27 28 31 28 24 23 26 31 20 5 7 7 8 10 4 1 3 1 0 1 1 2 3 3 4 1 2 1 3 1 1 5 6 5 2 2 5 7 8 8 6 5 5 5 6 8 10
13 13 14 14 15 15 14 14 15 16 17 18 17 16 14 14 16 15 14 14 15 13 14 14 13 16 14 4 3 7 9 13 18 20 17 18 22 23 26 30 30 30 30 31 28 24 25 27 23 12 5 5 8 9 6 2 1 1 1 1 1 0 2 3 2 4 2 0 1 3 2 1 3 5 5 2 3 6 8 8 7 7 6 6 5 6 7 8
14 14 15 16 16 15 15 15 16 17 17 17 17 16 15 14 13 12 11 10 9 8 10 12 14 16 10 2 3 6 9 12 14 15 14 15 15 13 16 22 23 23 24 23 21 20 23 24 12 5 5 3 4 5 3 3 2 1 1 1 1 0 2 2 3 2 3 2 1 2 2 1 1 4 4 2 3 6 7 8 8 7 7 6 6 5 5 7
14 14 15 16 16 15 15 15 15 16 16 16 17 16 15 13 11 11 10 10 9 11 16 16 15 17 8 1 2 4 6 8 9 10 12 13 13 9 8 11 12 14 16 16 16 13 15 12 2 0 5 2 1 0 2 2 2 1 0 1 0 1 1 0 3 1 3 2 2 2 3 4 1 3 4 3 4 6 8 9 9 8 7 6 5 5 6 6
15 15 16 15 15 15 15 15 16 17 17 16 16 16 16 13 12 13 12 10 10 12 15 9 6 8 5 0 2 2 4 6 9 10 9 9 11 11 8 7 5 3 4 7 12 9 6 4 1 2 3 3 3 2 1 2 1 2 1 1 1 2 2 2 1 2 5 2 3 2 5 7 3 3 5 4 3 6 9 9 7 7 7 6 5 6 6 6
16 15 15 15 15 15 16 16 18 20 20 19 19 19 17 14 14 18 23 17 7 4 5 4 6 3 5 3 1 2 3 5 7 11 11 8 7 9 11 10 6 3 2 1 6 6 3 2 1 2 3 3 4 4 2 3 2 2 1 1 1 1 1 1 1 3 5 3 3 2 4 7 6 5 4 5 3 6 8 7 6 6 6 6 6 6 7 7
16 15 15 15 15 16 17 19 21 21 19 17 15 12 10 8 7 10 20 21 8 2 3 3 3 4 7 4 2 3 5 5 7 12 15 13 6 3 8 8 4 7 5 1 4 4 2 4 4 3 3 4 4 3 3 2 2 1 1 2 1 1 1 1 1 2 2 3 1 1 5 8 9 10 4 5 3 5 8 8 7 8 7 7 7 8 8 8
17 16 15 15 16 18 20 20 19 16 13 10 6 4 2 1 2 3 4 8 6 5 6 4 5 8 7 4 5 4 2 4 9 15 17 14 6 0 5 6 2 6 5 2 2 2 1 4 4 2 2 4 3 2 2 2 1 1 0 1 1 1 1 1 1 1 2 3 1 1 7 10 10 10 2 5 5 7 7 8 8 8 8 7 8 9 8 7
16 16 16 16 17 18 18 15 11 9 7 4 3 5 4 3 8 11 8 6 5 8 7 5 7 8 6 6 9 5 1 3 7 14 17 14 7 2 3 5 5 3 2 2 1 1 3 4 3 2 1 1 1 1 3 2 1 1 0 0 1 1 2 0 1 0 1 2 1 3 8 9 7 5 1 3 5 4 4 6 7 6 7 7 7 8 7 7
16 16 17 16 14 13 12 9 6 5 3 3 6 11 13 14 17 15 10 7 4 6 6 5 5 5 4 7 10 7 4 3 3 8 18 15 5 2 2 5 6 2 3 4 0 2 3 3 2 1 1 1 1 0 3 2 1 2 2 1 1 2 2 0 2 1 2 1 3 6 6 5 4 2 2 1 3 3 3 5 7 6 7 7 5 5 6 8
15 15 16 14 11 10 9 6 4 3 3 7 15 19 19 19 17 12 7 5 4 4 4 3 3 4 4 4 8 7 4 3 1 6 17 12 2 0 3 4 5 5 5 5 5 6 5 3 2 1 2 2 2 0 1 2 0 2 2 2 1 2 2 2 2 3 2 2 2 7 3 0 4 3 3 2 1 4 3 4 7 7 8 7 6 7 7 8
15 14 13 11 10 8 8 5 4 6 10 15 19 20 18 14 8 5 3 3 3 2 1 1 2 3 4 4 9 4 3 3 2 5 12 9 2 1 2 1 2 3 1 3 6 8 6 2 0 2 2 2 3 1 2 2 1 2 1 1 1 2 2 4 5 3 2 2 3 5 0 3 3 3 3 3 2 4 2 4 8 7 6 6 7 9 8 8
15 13 11 10 8 7 7 4 7 12 13 14 16 17 13 7 2 1 1 3 3 1 1 1 1 3 3 6 9 1 3 2 2 4 9 9 3 2 3 1 3 3 2 1 4 4 3 2 1 1 2 2 1 1 1 2 2 1 1 0 1 1 2 3 4 3 0 1 2 4 2 2 3 4 4 4 4 5 1 4 7 6 5 5 6 7 6 7
14 13 11 8 6 7 4 3 11 13 8 10 15 13 7 3 2 1 1 2 2 0 1 1 1 3 2 5 7 1 2 1 0 5 10 9 5 1 3 1 1 3 1 1 2 2 2 1 2 0 1 1 1 1 1 2 3 1 2 1 2 1 1 2 3 1 2 1 1 3 4 0 3 5 3 4 4 4 3 2 3 2 3 4 5 5 6 7
13 13 11 7 6 6 3 6 15 11 8 15 15 8 3 1 1 1 1 2 1 0 2 2 1 3 2 3 5 2 1 2 0 3 7 9 7 2 3 3 2 5 2 2 0 2 1 1 1 1 2 1 1 2 2 2 2 2 2 1 0 0 1 2 2 1 1 2 1 5 6 1 2 3 1 1 3 5 7 7 5 4 3 3 3 4 4 6
13 12 11 7 5 5 5 10 13 10 15 19 10 3 2 1 1 1 2 1 1 1 1 1 1 2 2 1 5 4 1 2 2 4 6 7 9 6 5 3 5 9 4 2 3 3 1 2 2 2 1 1 2 3 2 2 1 2 3 2 1 1 0 1 1 1 1 1 2 5 7 1 2 3 3 2 3 6 8 6 5 4 4 4 3 4 4 4
13 13 11 6 5 7 9 10 10 14 19 14 5 2 1 0 1 1 2 1 1 1 1 1 1 2 2 1 4 4 3 3 2 4 3 3 8 8 5 1 3 7 5 6 7 3 1 1 1 1 2 2 2 2 2 2 1 2 3 2 1 2 1 1 1 1 2 1 3 4 6 3 1 3 3 3 3 5 7 7 6 5 6 5 4 4 4 4
13 13 11 7 8 10 9 8 12 18 16 8 4 2 0 1 1 1 1 0 1 1 1 1 1 3 2 2 3 3 3 3 4 4 3 1 4 5 3 1 1 3 3 5 5 1 1 1 0 1 1 1 1 1 1 1 0 1 2 1 1 1 1 2 1 1 1 2 3 2 4 4 0 2 2 3 3 3 5 6 8 9 9 7 6 5 5 5
14 13 11 8 7 7 8 12 17 16 9 5 4 1 1 1 0 1 0 1 1 1 0 1 1 2 2 1 3 3 1 2 4 3 2 1 2 2 1 0 1 1 1 2 2 1 1 2 1 0 1 1 2 2 2 2 2 2 2 2 2 0 0 0 0 1 1 2 2 1 3 2 0 1 3 5 5 4 3 6 7 9 9 9 8 8 6 5
14 14 12 9 7 9 13 16 15 11 7 6 3 2 3 1 1 2 1 1 1 1 1 2 1 1 1 1 2 2 1 1 2 2 1 1 2 2 1 0 1 1 1 2 2 2 1 2 1 1 2 0 3 1 0 1 1 1 1 2 2 1 2 1 1 1 1 1 1 0 2 0 1 1 2 4 6 6 4 5 6 7 8 9 9 8 7 6
15 14 12 10 9 11 13 12 10 8 6 5 2 2 3 1 1 1 1 1 1 2 1 1 1 2 2 2 1 1 0 2 2 1 1 0 1 1 2 1 1 1 2 2 1 2 2 1 1 0 1 1 1 1 2 1 1 0 1 2 1 1 1 1 1 1 1 1 1 1 1 1 1 1 1 4 6 4 3 3 4 5 5 6 6 5 6 6
16 14 12 11 11 10 10 9 8 6 4 4 3 3 1 2 2 2 2 2 1 1 1 1 1 3 3 2 1 1 1 1 1 1 2 1 2 2 1 2 1 1 2 2 2 1 2 1 2 1 1 2 1 1 1 2 1 1 1 2 0 1 1 1 1 1 1 2 1 1 2 1 1 2 1 3 3 2 2 2 2 3 2 3 3 4 5 6
17 15 12 11 10 9 9 8 6 4 4 3 3 1 2 1 1 2 2 3 3 4 4 2 1 2 1 0 1 1 1 0 1 0 1 1 1 1 0 1 1 1 1 1 2 1 1 0 2 1 1 1 2 0 1 2 1 0 1 0 2 1 1 2 2 1 1 1 1 1 2 1 2 2 0 1 1 1 3 4 4 5 5 5 5 6 6 7
18 15 10 9 8 7 7 5 3 3 2 3 2 1 1 1 0 1 1 2 2 3 5 3 1 1 2 3 1 1 1 1 0 1 2 1 1 2 2 1 1 1 1 1 1 1 0 2 2 0 1 2 1 1 1 1 2 2 0 3 2 1 0 0 0 1 1 1 1 1 2 1 2 1 2 0 2 4 6 6 6 6 7 7 7 7 7 7
18 13 8 7 6 6 6 4 3 2 2 3 1 1 1 1 0 1 2 1 1 2 3 2 0 1 2 3 2 2 1 2 2 1 2 1 1 2 3 2 2 1 1 1 1 0 1 1 2 0 0 1 1 2 2 1 1 2 1 2 1 1 0 0 0 0 1 1 1 1 1 3 3 2 2 1 2 4 5 6 6 7 8 7 6 7 8 7
16 9 4 3 4 5 5 4 3 2 2 1 1 1 1 1 0 0 1 1 0 2 2 2 1 1 1 2 2 2 2 2 3 3 2 2 1 1 1 1 2 1 0 1 1 0 1 1 1 1 1 1 1 2 1 2 2 1 1 0 0 1 1 1 1 1 1 1 1 1 1 2 3 2 3 3 2 2 3 5 6 6 7 6 6 7 7 7
11 4 0 1 3 4 5 4 2 2 2 1 1 1 1 1 2 1 0 1 0 1 1 2 2 2 2 0 0 2 1 1 3 2 1 1 1 0 0 0 2 3 1 1 1 0 0 1 0 2 1 2 1 1 1 1 2 2 2 2 2 1 1 0 1 1 1 1 1 1 2 1 2 2 3 4 3 1 1 3 4 5 6 6 5 6 6 6
7 2 1 1 3 6 6 5 4 1 1 1 1 1 0 1 3 2 0 0 1 1 0 2 2 2 3 2 1 2 3 2 2 1 1 2 2 0 1 1 1 3 3 2 1 1 1 0 0 2 2 2 1 2 2 3 2 1 1 1 1 1 1 1 1 1 1 1 1 1 3 1 2 2 3 4 3 2 0 2 4 4 6 6 6 5 5 5
4 2 1 0 3 7 6 4 2 0 1 1 0 1 1 1 2 2 1 0 0 0 1 2 2 2 3 2 0 3 3 2 2 1 1 2 1 1 2 2 1 0 1 1 1 0 0 1 2 2 1 1 1 2 1 1 2 1 1 1 1 0 1 1 1 2 2 0 0 0 2 1 2 1 2 3 2 0 1 3 4 5 5 5 6 5 5 5
2 2 2 2 3 6 4 2 1 0 1 1 1 1 1 1 2 1 1 1 1 1 1 0 1 1 2 1 2 4 3 2 3 2 1 1 1 2 1 1 1 1 1 1 1 2 1 0 2 1 1 1 1 2 1 1 1 2 1 1 1 1 1 1 1 1 2 2 2 1 2 2 2 2 1 1 1 2 2 4 5 5 5 5 5 5 5 5
2 2 2 4 2 4 2 2 3 1 0 0 1 2 1 0 2 1 2 2 1 1 2 1 0 1 1 1 2 3 2 2 2 0 0 2 1 2 1 1 1 1 1 1 0 1 1 1 2 1 1 2 2 2 2 2 2 3 1 2 2 2 3 2 1 1 2 2 2 2 3 2 2 1 1 2 2 3 4 5 5 5 6 5 4 5 5 6
3 2 1 4 5 3 2 2 3 4 3 2 2 2 1 1 1 0 1 2 1 1 2 2 0 1 2 2 2 2 1 1 1 0 1 1 1 1 1 1 1 1 1 2 2 1 0 1 2 2 3 2 2 2 1 1 3 2 2 3 4 4 4 2 2 2 3 2 2 4 3 0 1 2 4 3 1 2 4 4 5 6 6 5 4 4 5 5
3 2 0 2 5 5 2 1 2 4 4 3 2 2 2 2 1 0 0 1 1 1 1 1 1 2 2 2 2 2 1 2 1 2 2 2 2 1 1 0 0 1 1 2 2 1 1 1 1 1 2 1 1 1 2 1 2 3 3 5 6 5 3 2 2 3 3 4 3 7 3 2 3 5 6 4 2 2 4 3 3 4 4 4 4 5 5 5
2 2 2 2 1 1 1 0 2 3 3 5 3 3 4 3 2 2 0 1 1 1 1 2 2 3 3 4 3 2 1 1 1 2 2 2 1 0 1 0 0 1 2 2 2 0 1 1 1 1 1 2 1 1 2 3 1 2 3 6 7 6 5 5 5 3 5 5 4 6 4 3 7 6 6 4 2 2 5 4 3 3 4 4 4 5 6 6
1 2 1 1 1 2 1 2 4 3 2 3 1 3 5 4 3 4 2 1 0 2 2 1 3 4 5 5 4 4 3 1 1 2 2 2 2 2 1 1 1 1 1 0 1 0 1 1 1 1 1 0 1 1 2 2 1 1 2 5 8 8 9 10 7 4 7 6 3 0 6 8 8 5 4 2 1 4 6 4 3 4 4 5 4 5 6 6
1 2 1 3 1 2 0 1 6 6 4 2 1 2 5 6 6 3 2 2 1 3 3 3 5 6 6 4 3 4 5 4 2 3 4 4 3 3 2 2 2 1 1 1 0 0 1 1 2 1 1 0 1 2 2 1 1 3 4 6 8 10 12 11 6 3 5 7 4 1 4 10 10 9 8 3 1 4 6 4 3 4 4 4 4 5 6 7
2 2 2 2 2 2 1 2 5 6 3 1 1 2 4 6 7 4 2 3 4 3 4 4 5 5 5 4 3 3 6 5 3 5 8 7 4 4 3 3 3 3 0 1 1 1 2 1 2 1 2 1 2 2 2 1 1 4 5 5 7 7 8 9 6 3 4 8 6 3 7 12 9 7 6 2 1 3 5 5 4 4 3 3 3 4 6 7
2 4 6 4 2 1 0 1 3 3 3 2 3 3 4 7 8 5 2 2 1 4 6 7 6 5 3 3 5 4 4 4 2 3 8 8 3 3 2 2 5 7 4 2 2 1 1 1 2 1 2 1 2 2 2 2 1 6 8 8 11 9 6 7 6 7 8 6 3 3 6 10 4 3 3 2 2 4 6 6 4 3 2 2 2 5 6 6
4 4 4 4 2 1 1 2 1 1 3 3 4 4 3 3 6 6 4 1 0 1 2 4 6 5 2 5 6 3 1 3 2 3 4 4 4 5 4 3 4 5 6 5 2 0 1 3 2 1 2 1 2 2 2 2 3 5 7 7 13 12 7 4 5 9 11 7 5 5 7 3 1 3 4 5 5 6 6 4 2 1 1 1 2 3 5 5
Wind_Direction
120 109 99 90 87 91 95 99 104 107 106 101 97 106 118 122 119 120 122 123 124 120 117 115 111 111 108 107 104 96 97 99 70 51 46 9 350 345 333 351 356 2 254 230 149 96 74 72 66 69 74 58 35 12 40 23 2 330 51 78 88 81 92 93 99 100 111 133 152 152 219 166 127 133 150 185 133 110 123 103 78 111 29 49 109 136 148 152
126 115 106 101 97 97 96 94 95 100 106 102 100 113 119 118 116 120 126 126 124 119 117 114 112 114 108 109 106 94 92 86 63 41 20 2 1 14 35 41 18 352 242 171 129 113 84 73 61 60 65 53 16 6 42 9 1 32 64 83 80 69 80 30 76 98 108 130 142 142 203 194 124 133 184 189 125 139 142 114 135 139 134 159 157 152 154 162
130 122 115 114 108 108 105 93 92 98 105 105 107 119 118 112 114 118 123 124 123 122 119 117 119 120 117 114 106 95 84 74 59 20 355 359 21 43 61 69 56 63 92 117 116 105 97 93 76 64 69 61 27 25 46 14 349 23 47 86 81 83 93 49 60 73 71 126 138 135 170 163 122 169 222 170 138 156 152 132 168 161 163 168 167 169 166 174
134 127 123 123 120 119 113 101 99 101 107 110 113 120 116 111 116 116 117 119 123 126 120 122 131 127 132 126 107 97 79 71 50 339 346 358 30 47 64 67 54 65 79 96 101 98 96 86 69 62 73 69 44 47 42 16 7 36 28 83 104 125 101 61 35 72 60 126 134 131 153 140 125 238 222 195 156 128 124 147 171 161 170 170 171 178 177 187
134 130 128 129 129 127 120 110 107 106 110 116 119 120 118 117 120 119 117 118 120 120 108 99 107 143 151 154 161 98 73 82 9 332 346 0 32 47 54 46 36 49 59 87 93 89 84 70 60 55 62 60 42 56 41 13 34 71 41 70 98 112 101 85 53 104 116 118 131 139 148 120 130 210 161 259 211 86 83 123 157 144 162 171 175 180 184 197
133 131 132 131 132 133 125 117 113 112 112 117 123 125 124 124 126 123 121 121 119 113 106 97 87 99 102 84 101 80 67 101 340 333 344 2 29 36 29 27 27 24 7 97 86 76 71 59 60 58 68 63 48 59 53 11 23 100 75 62 67 62 104 115 94 127 237 156 138 129 122 119 188 179 106 273 286 84 81 79 149 136 161 171 172 182 191 203
132 131 132 132 134 135 129 120 118 117 116 119 124 130 129 124 119 115 120 121 119 118 111 105 99 102 100 91 88 72 68 68 334 333 345 12 28 20 20 31 26 22 115 105 86 85 79 71 77 75 85 81 65 72 74 59 55 88 105 89 65 71 94 93 85 152 260 139 108 100 151 181 246 140 114 252 234 126 119 53 248 173 171 179 180 189 198 208
132 133 134 134 136 136 132 122 118 119 122 124 122 129 128 120 113 108 113 118 123 126 113 114 116 113 112 100 88 65 54 349 332 337 356 24 28 22 43 58 61 100 100 89 91 99 81 73 89 93 76 77 84 91 83 70 58 70 105 113 92 81 87 92 97 113 110 82 77 217 168 7 9 5 275 213 152 124 136 134 166 162 164 184 197 199 202 211
132 135 136 137 139 138 133 124 121 123 127 131 126 127 126 120 112 103 108 118 127 120 102 121 132 136 129 105 88 66 21 338 337 346 13 41 43 53 77 78 85 105 90 75 87 101 76 72 96 110 97 94 93 86 15 54 59 69 107 117 112 105 100 118 103 81 93 73 273 229 134 56 63 329 247 177 119 103 144 147 147 165 173 191 203 206 208 215
133 136 138 140 142 139 131 122 122 124 131 135 130 128 128 120 105 100 106 119 134 123 107 115 130 147 125 99 82 70 355 343 3 19 49 71 65 67 75 80 86 96 83 67 63 71 98 122 112 109 105 93 75 51 346 59 102 111 112 106 103 116 106 91 116 79 121 73 348 270 120 81 95 290 218 152 116 116 165 158 154 184 188 197 205 210 216 224
135 136 139 140 138 135 127 121 117 124 136 135 132 129 126 115 99 99 105 113 129 124 117 114 133 130 97 80 78 77 359 1 28 44 67 81 74 67 70 86 100 103 95 79 73 88 105 117 120 120 102 93 87 67 46 83 114 121 119 102 90 117 98 52 113 57 302 132 10 327 137 120 165 250 181 116 111 158 189 177 174 199 202 204 208 214 224 232
133 134 137 137 133 133 125 122 116 125 140 138 132 129 121 106 99 106 108 113 117 116 122 120 131 118 87 68 63 69 30 34 41 55 68 73 73 71 75 90 100 106 105 94 83 95 104 119 115 87 88 136 112 84 93 110 113 129 141 103 102 133 87 35 27 9 314 91 16 315 211 192 196 214 121 99 111 160 206 200 193 207 211 212 214 221 229 233
129 130 133 133 133 133 125 118 113 122 136 137 133 130 120 108 110 116 115 116 117 116 122 120 128 121 91 61 39 64 51 53 61 70 72 75 77 78 83 89 93 97 102 99 89 84 90 107 100 87 81 119 109 106 122 132 119 134 134 93 128 161 86 29 357 330 294 79 5 268 226 168 189 196 130 103 164 173 206 214 210 213 216 220 220 230 236 237
126 128 131 134 133 129 121 112 111 120 129 132 131 128 119 117 121 122 117 117 119 119 118 113 116 108 90 76 65 59 60 65 70 72 70 77 80 80 82 85 87 87 91 93 90 89 93 96 94 91 53 62 111 130 112 106 289 120 132 199 159 189 110 71 14 335 265 123 339 257 260 93 177 182 136 114 187 195 216 216 216 218 220 227 226 236 243 243
126 130 132 134 132 126 119 113 113 120 125 126 126 124 121 124 126 123 118 118 117 117 119 111 106 100 88 86 66 55 70 66 58 57 59 71 77 79 81 83 85 85 87 89 89 91 91 85 78 81 66 69 128 134 113 110 83 115 206 165 107 260 116 112 65 7 359 153 304 261 273 48 184 172 131 116 188 202 226 223 223 228 230 236 235 240 248 252
127 131 133 132 130 125 120 116 116 119 122 121 119 120 120 119 122 122 119 121 121 122 115 101 100 104 96 89 71 48 53 48 40 46 54 64 73 83 84 84 85 84 84 83 86 84 76 75 64 57 87 108 134 117 134 140 120 188 275 98 102 93 122 150 138 60 343 280 246 246 284 328 181 150 124 134 190 198 227 233 231 234 239 243 241 244 251 260
126 130 131 130 128 125 122 119 119 120 120 120 119 118 117 113 114 114 108 108 114 121 112 96 91 93 77 24 86 38 16 23 29 42 52 56 62 80 93 89 85 86 86 73 68 60 48 60 76 74 75 82 70 266 190 123 110 153 28 116 106 282 208 227 142 94 320 261 218 211 255 275 197 142 159 179 192 201 223 234 233 233 237 240 243 250 251 257
124 128 129 128 125 123 121 119 117 117 117 116 115 114 113 110 108 97 88 106 116 115 109 77 45 81 73 289 83 8 324 6 31 34 39 48 51 60 69 73 66 74 96 57 42 29 13 37 174 125 71 45 42 306 223 63 31 104 76 139 112 229 245 306 146 16 345 284 254 229 242 266 254 200 191 179 190 216 228 234 236 237 239 241 242 248 250 253
122 126 128 126 124 121 119 119 117 117 117 115 113 112 108 101 95 72 56 67 87 99 99 2 335 94 100 94 37 3 353 10 29 26 23 20 30 51 45 48 56 40 63 28 24 14 358 51 69 87 62 21 16 342 14 24 358 62 71 93 76 208 153 335 61 33 353 300 274 252 265 284 283 264 203 159 174 219 237 245 245 245 242 244 243 243 247 249
120 122 127 127 126 124 123 124 121 118 117 118 117 112 111 95 79 52 42 51 58 34 63 356 345 83 82 69 352 26 54 55 47 26 17 5 352 45 19 17 56 52 46 344 17 1 329 76 66 39 15 339 330 333 354 337 340 53 106 98 75 310 79 87 72 47 339 303 270 244 292 284 278 272 215 140 165 220 235 238 238 238 234 235 239 241 243 244
121 120 125 127 129 130 131 129 123 118 115 116 113 92 131 124 86 138 61 57 57 35 52 49 47 69 76 51 5 9 41 71 44 19 13 2 347 72 356 357 68 52 36 296 303 297 314 74 61 7 349 329 322 310 300 298 327 333 318 91 132 336 21 78 44 24 359 314 222 77 299 281 274 275 222 135 187 220 225 230 235 235 233 233 236 242 244 247
125 122 124 126 130 134 137 133 121 118 111 81 66 78 95 119 120 129 125 98 54 22 39 57 52 61 66 46 28 12 3 65 31 10 4 357 1 46 358 30 70 61 17 309 236 91 54 73 61 42 62 357 36 244 280 299 346 351 344 269 128 19 318 184 109 15 349 314 320 347 305 296 300 300 304 167 211 227 224 240 255 249 242 237 233 241 245 251
131 126 127 127 129 136 140 136 125 116 76 32 98 109 110 113 119 118 107 103 73 20 25 34 44 43 30 38 26 18 56 46 9 0 356 354 16 54 41 64 69 79 7 359 77 120 77 82 53 75 189 291 48 199 274 265 3 28 8 311 21 8 319 159 112 5 336 308 317 309 287 295 329 20 54 116 220 270 269 250 259 254 250 248 249 256 251 251
142 134 135 133 130 137 142 138 131 93 70 111 118 119 122 122 121 114 96 97 85 38 23 26 61 43 23 31 15 20 82 55 352 338 349 2 93 317 52 82 68 67 21 10 80 89 75 67 43 144 179 275 273 344 310 262 141 47 11 7 14 343 316 293 303 325 293 190 311 308 256 111 3 33 43 57 178 261 249 243 252 237 238 251 266 266 249 246
156 146 142 143 138 139 144 128 113 115 113 120 122 124 128 127 124 110 86 85 81 52 11 45 78 44 28 10 1 9 136 76 29 319 347 17 60 253 104 100 34 79 331 350 77 81 68 61 289 181 156 238 258 3 20 303 226 123 39 354 325 311 286 288 297 293 238 162 27 337 267 97 30 23 12 15 328 282 213 232 257 239 223 229 245 252 241 239
167 162 155 155 153 148 148 120 121 128 119 120 129 132 131 123 107 78 66 86 84 16 341 44 36 27 10 351 353 344 156 69 3 356 11 23 22 110 125 27 25 101 196 30 80 86 72 104 190 225 179 181 225 85 37 299 268 125 87 240 221 262 277 295 303 289 294 43 23 350 356 92 59 33 9 346 318 305 255 236 258 249 233 228 238 250 244 241
171 174 172 171 177 167 161 151 147 138 124 142 144 139 140 130 100 63 42 89 94 333 29 45 355 26 15 346 348 297 151 353 244 35 22 19 15 69 94 75 86 81 107 148 110 86 62 139 159 237 222 220 247 108 55 297 284 47 106 165 195 235 296 317 315 340 43 316 215 24 6 76 70 38 356 312 319 349 18 356 310 280 260 256 259 267 264 260
173 177 178 178 183 186 208 168 159 154 151 156 149 142 161 166 165 231 94 108 102 24 50 52 55 34 25 11 22 67 116 337 67 27 9 23 26 31 76 69 120 94 88 246 143 78 16 23 72 331 237 232 312 42 28 278 295 56 121 162 248 318 352 304 305 58 66 259 150 34 357 313 81 43 328 285 347 8 8 358 354 358 345 313 293 288 284 279
174 176 172 171 181 193 192 167 165 165 156 155 151 144 162 152 190 133 79 140 195 59 38 38 119 20 339 2 31 41 48 18 31 347 341 26 35 43 81 88 121 106 87 340 79 115 47 16 348 312 288 30 62 55 12 289 336 83 137 125 95 128 6 285 327 68 218 280 52 17 352 359 93 30 2 8 4 353 344 331 327 330 326 317 309 311 311 308
175 174 167 163 159 150 149 155 163 158 152 154 159 153 153 131 162 90 63 196 162 112 316 305 204 334 337 77 35 17 31 37 356 341 346 42 37 46 79 155 133 103 75 51 66 93 91 54 269 339 353 12 62 85 34 345 28 121 168 163 171 183 202 226 21 281 228 79 61 18 354 335 75 47 11 7 350 319 312 313 316 320 326 325 321 324 323 318
173 171 163 148 144 144 140 140 149 151 149 151 156 139 92 30 79 113 140 251 100 137 312 14 330 348 19 103 59 21 41 37 341 350 44 57 33 57 98 197 152 106 92 77 70 93 161 152 160 42 21 305 276 159 110 68 187 221 221 224 216 178 184 193 153 240 262 59 74 39 346 306 35 73 9 348 332 278 279 305 315 319 325 325 323 325 320 313
172 168 159 148 154 157 146 139 141 143 142 144 147 107 75 113 318 162 228 331 63 159 122 72 319 17 50 86 53 14 359 42 12 23 59 21 45 69 22 258 162 141 155 133 104 158 167 86 59 247 146 255 274 219 157 156 190 233 230 253 270 153 122 227 50 289 314 46 83 24 330 293 141 23 326 326 334 327 289 282 297 308 312 316 324 328 324 316
171 166 155 145 151 144 135 137 137 133 129 134 132 45 75 109 226 164 123 358 20 352 44 68 33 42 55 97 74 3 316 41 5 31 72 316 58 72 352 355 292 299 133 139 137 171 170 113 169 209 140 298 295 279 193 145 177 256 274 308 323 30 38 16 341 284 302 42 108 267 313 35 137 234 255 304 328 339 316 290 291 293 297 307 316 315 312 311
164 163 156 141 139 135 131 139 140 132 128 132 119 51 82 134 200 161 203 245 304 344 40 67 84 76 41 67 95 287 169 70 347 356 72 352 116 147 189 176 287 330 106 128 158 183 216 184 131 52 18 331 316 338 347 336 317 38 322 305 346 52 4 344 306 303 333 328 140 162 294 137 131 147 206 290 309 315 298 284 277 271 272 285 292 297 306 319
157 154 149 138 136 136 136 144 147 147 144 121 81 70 127 209 203 181 193 184 191 137 72 339 120 88 44 37 35 303 244 87 17 15 38 48 174 174 164 156 205 221 153 171 165 137 272 274 70 47 314 339 14 44 327 282 240 121 208 273 13 44 17 56 23 19 344 289 228 199 270 223 272 303 291 288 291 268 250 251 289 320 320 291 306 337 340 340
150 141 134 128 128 133 142 145 145 156 151 108 80 110 193 231 175 167 162 134 147 154 142 144 111 97 95 230 55 24 269 29 72 216 49 15 241 211 157 143 167 204 237 195 162 153 256 121 84 119 171 32 14 9 278 282 290 131 223 108 53 4 70 116 101 87 233 258 116 294 280 225 251 273 260 308 339 25 6 3 360 0 358 353 359 356 350 347
142 128 114 107 115 136 147 148 151 162 133 96 104 176 197 235 184 173 157 114 116 145 147 151 182 200 172 172 181 210 213 151 169 228 168 157 238 179 169 190 157 187 301 308 201 204 244 128 108 352 143 101 27 269 260 277 293 288 204 101 92 343 15 108 94 134 223 279 94 275 292 275 243 184 140 72 21 20 9 1 357 4 6 1 358 349 345 342
137 117 95 87 107 142 147 142 150 145 68 78 107 235 178 137 323 156 155 153 99 120 154 155 92 302 192 176 178 174 188 175 151 159 169 191 225 159 146 159 172 196 319 322 290 301 303 136 114 42 284 111 164 239 225 170 239 302 17 88 162 246 92 174 226 172 281 305 269 238 295 263 242 170 143 124 31 3 354 358 1 5 3 354 346 342 341 338
136 113 77 74 104 140 148 152 146 100 64 90 177 228 172 155 244 145 157 230 125 129 167 169 69 358 205 168 143 150 190 185 153 165 204 197 184 139 108 152 170 165 199 300 289 72 333 274 138 131 293 306 206 225 225 132 140 223 251 144 322 333 349 59 44 318 284 230 269 316 310 227 213 179 150 127 79 355 346 357 359 354 348 344 339 335 332 330
136 109 341 109 115 141 142 125 89 67 80 159 202 163 133 165 154 134 260 261 244 134 170 157 131 151 173 132 356 162 165 170 165 179 223 188 182 166 63 130 151 153 166 282 273 168 52 296 220 129 218 256 198 186 308 47 123 192 205 179 133 97 343 120 99 7 324 218 197 286 293 213 159 175 150 126 119 130 330 327 329 333 333 334 329 325 326 325
131 102 220 132 126 148 131 85 52 45 121 114 147 149 184 175 135 118 204 311 346 329 94 126 127 143 154 158 231 173 147 158 182 197 206 196 212 172 44 359 118 150 162 170 194 209 182 228 143 128 179 225 86 51 8 358 346 304 265 247 141 127 174 212 158 72 5 297 210 265 297 301 123 172 154 124 129 152 205 288 297 309 314 318 318 318 319 317
118 125 190 141 163 157 124 67 36 9 123 108 96 111 131 151 119 115 162 166 333 338 57 93 105 121 156 157 168 166 153 149 169 192 225 213 206 67 43 357 332 298 174 149 108 126 187 106 108 110 208 265 50 69 61 7 347 331 323 332 2 163 222 250 239 160 138 63 356 340 289 295 109 179 197 140 136 210 269 256 267 291 298 298 305 315 317 309
106 135 87 60 163 162 108 71 196 43 49 306 320 32 65 142 116 116 190 195 182 127 80 106 127 131 181 158 134 172 181 179 174 179 229 212 116 76 66 358 277 244 211 153 109 151 193 127 102 87 285 231 142 127 134 345 299 248 244 220 226 264 343 356 7 125 156 177 172 187 244 241 130 157 211 171 221 266 259 241 248 273 285 286 301 318 324 317
96 129 63 47 126 175 153 150 175 146 111 240 44 60 18 247 121 134 190 190 191 173 142 147 184 113 129 99 117 161 198 216 189 104 55 186 132 95 115 265 269 228 203 351 60 165 205 201 151 142 163 179 183 184 191 202 223 238 194 148 181 110 89 101 119 111 229 202 166 229 244 218 119 125 214 200 221 251 237 226 233 257 279 299 318 319 319 316
110 94 10 21 51 98 155 186 146 133 146 137 109 130 157 130 133 251 181 147 153 215 139 126 174 101 102 104 99 93 40 348 190 92 76 129 111 93 134 238 264 269 354 339 318 296 268 196 185 186 189 198 202 202 231 181 171 202 165 159 183 162 149 163 122 158 231 179 149 225 235 244 79 214 224 210 204 280 251 222 221 237 260 286 305 312 317 315
138 93 230 352 28 61 80 3 111 125 149 155 139 173 170 141 134 281 199 143 152 172 85 85 155 120 104 134 121 101 44 16 55 141 143 153 160 72 55 92 284 274 282 304 303 324 106 141 244 229 228 278 9 76 345 1 139 166 168 167 184 190 187 156 128 190 192 136 186 230 234 332 273 221 220 219 195 290 287 265 246 245 261 292 305 311 310 302
154 143 154 164 61 77 66 34 137 115 166 185 177 168 164 149 121 131 227 289 162 164 73 72 165 179 169 161 144 137 138 53 80 129 125 139 156 18 275 193 347 256 241 268 302 52 152 186 169 181 247 317 15 55 340 330 203 176 160 164 178 183 182 188 194 180 139 139 239 241 187 235 259 232 211 208 199 292 286 278 286 297 304 309 307 298 295 298
161 152 134 116 155 164 182 198 168 124 133 184 166 135 155 163 165 168 179 48 63 229 198 165 218 213 189 173 158 150 145 121 161 162 136 144 156 133 151 217 222 189 162 286 307 289 223 221 146 158 246 284 63 17 330 314 256 209 194 180 177 176 186 201 207 179 171 200 266 102 168 217 249 253 235 208 203 280 274 280 308 310 293 290 289 287 300 320
95 105 37 357 19 148 153 159 144 134 131 142 124 163 172 181 186 180 131 118 199 250 217 208 222 203 189 189 153 151 171 177 190 197 175 160 164 155 146 185 194 140 121 156 163 284 222 168 125 182 257 106 65 17 355 319 283 255 226 201 187 187 197 211 218 192 216 257 294 115 223 252 253 251 259 263 174 252 270 290 294 275 268 270 276 297 320 341
165 162 138 51 55 103 25 57 130 138 133 122 214 199 178 186 188 176 155 166 175 187 191 215 212 169 161 185 175 185 206 190 171 188 173 156 170 201 198 185 149 121 141 170 124 297 256 137 102 165 261 316 30 20 20 19 283 258 243 210 187 190 208 226 242 214 225 266 270 230 264 274 258 229 245 261 147 237 267 272 254 243 249 256 279 327 343 352
129 139 145 124 98 124 60 83 123 140 149 188 208 188 188 203 190 161 158 207 176 172 188 191 165 123 104 191 205 234 229 191 166 180 169 157 157 183 186 163 141 144 163 177 154 203 217 124 99 139 236 262 20 355 339 5 308 262 263 228 190 183 200 213 215 200 194 205 200 183 247 264 250 140 146 177 196 235 251 255 243 217 217 257 315 348 348 347
117 105 131 114 95 183 182 109 114 168 185 199 189 175 193 204 175 161 168 191 99 183 221 179 150 130 139 198 212 236 202 154 119 96 131 124 80 78 81 60 92 132 154 155 148 106 158 157 145 156 227 237 26 347 312 329 288 260 266 227 190 185 192 196 215 220 207 181 150 186 222 245 72 122 158 178 212 237 243 240 230 219 240 283 331 337 335 332